Find Starlink 34361

NORAD ID: 64450 Int'l Des: 2025-130 Owner: SPXS Country: US Constellation: starlink operational
LEOCIRCULAR

リアルタイム位置

3D地球を読み込み中...

Starlink 34361について

説明を読み込み中...

次回通過

Passes for default location (London). Set your location on the main map for personalized predictions.

高度履歴

Loading altitude history...

軌道要素

1 64450U 25130N 26106.64444453 .00006872 00000-0 24377-3 0 9998
2 64450 53.1605 272.2676 0000871 77.1937 282.9161 15.30220982 47689
Epoch: Apr 16, 2026 • Age: 19 hours

現在のステータス

高度 489.1 km
速度 7.62 km/s
衛星直下点 -41.05°S, 127.9°W
打ち上げ日 Jun 18, 2025
運用期間 0.8 years
タイプ internet

技術仕様

分類 Payload
質量 575.00 kg
乾燥質量 530.00 kg
総質量 575.00 kg
長さ 0.30 m
直径 4.10 m
スパン 29.00 m
形状 Box + pan
製造者 SPXS
バスタイプ Starlink V2MO
フェーズステータス In Orbit
所有者/国 SPXS/US

Most Searched